Regional Weather Roundup
Issued by NWS

Home | Current Version | Previous Version | Text Only | Print | Product List | Glossary Off
Versions: 1 2 3 4 5 6 7 8 9 10 11 12 13 14 15 16 17 18 19 20 21 22 23 24 25 26 27 28 29 30 31 32 33 34 35 36 37 38 39 40 41 42 43 44 45 46 47 48 49 50

000
ASUS43 KLOT 202358
RWRIL

ILLINOIS REGIONAL WEATHER ROUNDUP
NATIONAL WEATHER SERVICE CHICAGO/ROMEOVILLE IL
700 PM CDT WED AUG 20 2014

NOTE: "FAIR" INDICATES FEW OR NO CLOUDS BELOW 12,000 FEET WITH NO
SIGNIFICANT WEATHER AND/OR OBSTRUCTIONS TO VISIBILITY.

* THESE STATIONS ARE NOT UNDER NWS QUALITY CONTROL. THEY ALSO MAY NOT
  REPORT WEATHER SUCH AS PRECIPITATION OR FOG.

ILZ001-002-007-009-015-016-024-210100-
NORTHWEST ILLINOIS

CITY           SKY/WX    TMP DP  RH WIND       PRES   REMARKS
MOLINE         MOCLDY    76  70  82 SW5       29.89S
6HR MIN TEMP:  75; 6HR MAX TEMP:  79; 6HR PCP: TRACE;

$$

ILZ003-004-008-010-011-017-018-210100-
NORTH CENTRAL ILLINOIS

CITY           SKY/WX    TMP DP  RH WIND       PRES   REMARKS
ROCKFORD       NOT AVBL
$$

ILZ005-006-012>014-019>023-210100-
NORTHEAST ILLINOIS

CITY           SKY/WX    TMP DP  RH WIND       PRES   REMARKS
CHICAGO-OHARE  MOCLDY    82  63  52 W10       29.88R HX  83
6HR MIN TEMP:  82; 6HR MAX TEMP:  86;

CHICAGO-MIDWAY PTCLDY    84  68  58 W10       29.88S HX  87
6HR MIN TEMP:  84; 6HR MAX TEMP:  87;

AURORA         PTCLDY    79  69  71 SW9       29.90S HX  81
6HR MIN TEMP:  79; 6HR MAX TEMP:  85;

WAUKEGAN       PTCLDY    81  66  60 SW5       29.88R HX  83
6HR MIN TEMP:  80; 6HR MAX TEMP:  85;

DUPAGE AIRPORT CLEAR     81  65  58 W9        29.90R HX  83
6HR MIN TEMP:  81; 6HR MAX TEMP:  86;

WHEELING       PTCLDY    83  65  54 W10       29.89R HX  85
6HR MIN TEMP:  83; 6HR MAX TEMP:  87;

NORTHERLY ISL    N/A     83  62  49 W13         N/A  HX  84
$$

LMZ740>746-210100-
SOUTHERN LAKE MICHIGAN

STATION/POSITION SKY/WX   TEMP    WIND        PRES    VSBY  WAVE
                          AIR SEA DIR/SP/G                  HT/PER
                          (F)     (DEG/KT/KT) (MB)    (MI)  (FT/S)
SOUTHERN BUOY              70 69   80/  8/  8 1011.7S         0
WAUKEGAN HARBOR            77     320/  5/ 11   N/A
HARRISON CRIB              83     240/  8/ 11   N/A
BURNHAM HARBOR             84     230/  6/ 11   N/A
CALUMET HARBOR             83     230/  6/ 12 1010.7R
BURNS HARBOR               83     220/ 10/ 13   N/A
MICHIGAN CITY              79     230/  6/  8   N/A
MICHIGAN CITY 6N           77 73  260/  4/  6   N/A           1/ 3
ST. JOSEPH                 77 71  180/  2/  4   N/A           0
$$

ILZ025>027-034>036-040-047-049-050-058-095>099-210100-
WEST-CENTRAL ILLINOIS

CITY           SKY/WX    TMP DP  RH WIND       PRES   REMARKS
$$

ILZ028>032-037-038-041>044-048-051>054-059>061-210100-
CENTRAL ILLINOIS

CITY           SKY/WX    TMP DP  RH WIND       PRES   REMARKS
PEORIA         NOT AVBL
SPRINGFIELD    NOT AVBL
TAYLORVILLE    NOT AVBL
$$

ILZ033-039-045-046-055>057-062-063-210100-
EAST-CENTRAL ILLINOIS

CITY           SKY/WX    TMP DP  RH WIND       PRES   REMARKS
MATTOON        CLEAR     77  69  76 SW3       29.94F
$$

ILZ079-100>102-210100-
SOUTHWEST ILLINOIS

CITY           SKY/WX    TMP DP  RH WIND       PRES   REMARKS
$$

ILZ064>066-069>071-074>076-080>082-084>086-088>090-092>094-210100-
SOUTH-CENTRAL ILLINOIS

CITY           SKY/WX    TMP DP  RH WIND       PRES   REMARKS
CARBONDALE     MOCLDY    81  75  82 E5        29.93S HX  87
6HR MIN TEMP:  81; 6HR MAX TEMP:  91; 6HR PCP: TRACE;

$$

ILZ067-068-072-073-078-083-087-091-210100-
SOUTHEAST ILLINOIS

CITY           SKY/WX    TMP DP  RH WIND       PRES   REMARKS
$$

ABBREVIATIONS USED IN REMARKS
   TC - TEMPERATURE IN CELSIUS
  WCI - WIND CHILL INDEX
   HX - HEAT INDEX
  VSB - VISIBILITY
$$




USA.gov is the U.S. government's official web portal to all federal, state and local government web resources and services.